Location: Akdamlar
(36.8729°N, 30.5187°E)
Time: 19:46:40
(UTC+00:00)

HJ-1C - Pass Details

Date: 18 September 2020
Orbit: 432 x 443 km, 97.1° (Epoch: 26 October)

Event Time Altitude Azimuth Distance (km) Brightness Sun altitude
Exits shadow 16:48:45 - 157° (SSE) 2,318 6.7 -10.4°
Reaches altitude 10° 16:50:36 10° 153° (SSE) 1,529 5.7 -10.8°
Maximum altitude 16:53:47 51° 76° (ENE) 552 3.5 -11.4°
Drops below altitude 10° 16:57:00 10° 359° (N) 1,543 6.3 -12.0°
Sets 16:59:03 0° 355° (N) 2,417 7.3 -12.4°
